Terminal Aerodrome Forecast
Issued by NWS

Home | Current Version | Previous Version | Graphics & Text | Print | Product List | Glossary Off
Versions: 1 2 3 4 5 6 7 8 9 10 11 12 13 14 15 16 17 18 19 20 21

000
FTUS43 KDDC 211100 AAB
TAFGCK
TAF AMD
KGCK 211114Z 2111/2206 19008KT P6SM OVC005
      TEMPO 2111/2113 1/4SM FG OVC003
     FM211400 01015G22KT P6SM FEW050
     FM212100 04011KT P6SM SKC=

USA.gov is the U.S. government's official web portal to all federal, state and local government web resources and services.